Regional Weather Roundup
Issued by NWS Sioux Falls, SD

Home | Current Version | Previous Version | Graphics & Text | Print | Product List | Glossary On
Versions: 1 2 3 4 5 6 7 8 9 10 11 12 13 14 15 16 17 18 19 20 21 22 23 24 25 26 27 28 29 30 31 32 33 34 35 36 37 38 39 40 41 42 43 44 45 46 47 48 49 50
000
ASUS43 KFSD 251610
RWRFSD

WEATHER ROUNDUP FOR SE SOUTH DAKOTA/SW MINNESOTA/NW IOWA
NATIONAL WEATHER SERVICE SIOUX FALLS SD
1100 AM CDT SAT MAR 25 2017

NOTE: "FAIR" INDICATES FEW OR NO CLOUDS BELOW 12,000 FEET WITH NO
SIGNIFICANT WEATHER AND OR OBSTRUCTIONS TO VISIBILITY.


SDZ038>040-050-052>070-251700-
SOUTHEAST SOUTH DAKOTA

CITY           SKY/WX    TMP DP  RH WIND       PRES   REMARKS
BROOKINGS      CLOUDY    34  32  92 E8        30.11F WCI  27
CHAMBERLAIN    CLOUDY    36  34  92 E10       30.08F
HURON          CLOUDY    35  31  85 SE8       30.13S WCI  29
MADISON        CLOUDY    32  32 100 E13       30.10F WCI  22
MITCHELL       CLOUDY    36  33  89 E9        30.12F
SIOUX FALLS    CLOUDY    39  36  89 NE16      30.10S
WINNER         CLOUDY    37  33  85 S10       30.07F
YANKTON        CLOUDY    37  34  87 NE13      30.09F
$$

MNZ071-072-080-081-089-090-097-098-251700-
SOUTHWEST MINNESOTA

CITY           SKY/WX    TMP DP  RH WIND       PRES   REMARKS
FAIRMONT       CLOUDY    38  35  89 NE17      30.08F
JACKSON        CLOUDY    36  34  93 NE17G23   30.08F FOG
LUVERNE        CLOUDY    36  34  93 NE12      30.09S
MARSHALL       CLOUDY    36  34  92 E14       30.15S FOG
MONTEVIDEO     CLOUDY    36  34  93 SE12      30.18S
PIPESTONE      CLOUDY    36  32  87 E12G17    30.09F FOG
REDWOOD FALLS  CLOUDY    38  33  82 NE9       30.15S
TRACY          CLOUDY    37  36  99 NE12      30.14S FOG
WINDOM         CLOUDY    37  36  93 NE17      30.09F FOG
WORTHINGTON    CLOUDY    36  35  96 NE17      30.08F FOG
$$

IAZ001>003-012>014-020>022-031-032-NEZ013-014-SDZ071-251700-
NORTHWEST IOWA

CITY           SKY/WX    TMP DP  RH WIND       PRES   REMARKS
CHEROKEE       CLOUDY    37  37  98 NE12G22   30.05S FOG
ESTHERVILLE    CLOUDY    36  35  96 NE18      30.06S
LE MARS        CLOUDY    39  36  87 NE14      30.07S
ORANGE CITY    CLOUDY    37  37 100 NE8       30.06S FOG
SHELDON        CLOUDY    37  37 100 NE15      30.06S FOG
SIOUX CITY     CLOUDY    39  37  92 NE16G22   30.05F
SPENCER        CLOUDY    38  35  89 NE20      30.06R
STORM LAKE     FOG       36  36 100 NE21      30.02S VSB 1/2
$$

ABBREVIATIONS USED IN REMARKS
   TC - TEMPERATURE IN CELSIUS
  WCI - WIND CHILL INDEX
   HX - HEAT INDEX
  VSB - VISIBILITY




USA.gov is the U.S. government's official web portal to all federal, state and local government web resources and services.